FW9243 Weather Reports


time (UTC)temp
F
wind
direction
speed
knots
gust
knots
rain 1hr
in
rain 24hr
in
rain mn
in
humidity
%
barometer
mb
20260831095002 67 314 0.9 1.7 0.00 0.00 0.00 77 1023.5
20260831094804 67 17 0.0 1.7 0.00 0.00 0.00 77 1022.9
20260831094544 66 51 0.9 1.7 0.00 0.00 0.00 100 1024.0
20260831094505 67 45 0.9 1.7 0.00 0.00 0.00 78 1023.4
20260831094332 66 89 0.9 1.7 0.00 0.00 0.00 83 1023.4
20260831094325 67 178 0.9 1.7 0.00 0.00 0.00 80 1023.4
20260831093803 66 122 0.9 1.7 0.00 0.00 0.00 80 1022.8
20260831093303 66 198 0.9 1.7 0.00 0.00 0.00 84 1022.9
20260831093231 66 135 0.0 1.7 0.00 0.00 0.00 85 1023.4
20260831093049 66 0 0.0 0.9 0.00 0.00 0.00 100 1024.0
20260831092503 66 241 0.9 1.7 0.00 0.00 0.00 86 1023.5
20260831092306 66 203 0.9 1.7 0.00 0.00 0.00 86 1023.0
20260831092009 65 223 0.9 1.7 0.00 0.00 0.00 87 1023.4
20260831091805 65 312 0.9 1.7 0.00 0.00 0.00 86 1023.0
20260831091556 64 325 0.0 1.7 0.00 0.00 0.00 100 1024.0
20260831091504 65 20 0.9 1.7 0.00 0.00 0.00 86 1023.4
20260831091002 64 135 0.9 1.7 0.00 0.00 0.00 88 1023.5
20260831090803 64 161 0.9 1.7 0.00 0.00 0.00 88 1022.9
20260831090502 64 63 0.9 1.7 0.00 0.00 0.00 88 1023.5
20260831090304 64 187 0.9 1.7 0.00 0.00 0.00 88 1023.0
20260831090044 63 0 0.0 0.9 0.00 0.00 0.00 100 1024.0
20260831090002 64 269 0.9 1.7 0.00 0.00 0.00 88 1023.5
20260831085804 64 71 0.9 1.7 0.00 0.00 0.00 88 1023.0
20260831085502 64 269 0.0 1.7 0.00 0.00 0.00 88 1023.5
20260831085306 63 291 0.9 1.7 0.00 0.00 0.00 88 1023.0
20260831085002 63 178 0.9 1.7 0.00 0.00 0.00 89 1023.5
20260831084804 63 65 0.9 1.7 0.00 0.00 0.00 89 1022.9
20260831084543 63 0 0.9 1.7 0.00 0.00 0.00 100 1024.0
20260831084502 63 59 0.9 1.7 0.00 0.00 0.00 89 1023.5
20260831084303 63 43 0.9 1.7 0.00 0.00 0.00 89 1022.9
20260831084002 63 35 0.9 1.7 0.00 0.00 0.00 90 1023.4
20260831083803 63 64 0.9 1.7 0.00 0.00 0.00 90 1022.9
20260831083502 63 178 0.9 1.7 0.00 0.00 0.00 90 1023.5
20260831083303 63 52 0.9 1.7 0.00 0.00 0.00 90 1022.9
20260831083046 62 309 0.0 3.5 0.00 0.00 0.00 100 1024.0
20260831083003 63 178 0.9 2.6 0.00 0.00 0.00 90 1023.4
20260831082803 63 182 0.9 2.6 0.00 0.00 0.00 90 1022.9
20260831082503 62 1 0.9 2.6 0.00 0.00 0.00 90 1023.5
20260831082306 62 340 0.9 2.6 0.00 0.00 0.00 90 1023.0
20260831082002 62 28 0.9 1.7 0.00 0.00 0.00 91 1023.4
20260831081803 62 192 0.9 1.7 0.00 0.00 0.00 91 1022.8
20260831081544 62 309 0.0 0.9 0.00 0.00 0.00 100 1023.9
20260831081502 62 223 0.9 1.7 0.00 0.00 0.00 91 1023.3
20260831081229 62 223 0.9 1.7 0.00 0.00 0.00 91 1023.3
20260831080803 62 184 0.9 2.6 0.00 0.00 0.00 92 1022.7
20260831080502 61 145 0.0 1.7 0.00 0.00 0.00 92 1023.3
20260831080304 61 225 0.9 1.7 0.00 0.00 0.00 92 1022.8
20260831080110 61 64 0.9 1.7 0.00 0.00 0.00 100 1023.9
20260831080002 61 45 0.9 1.7 0.00 0.00 0.00 92 1023.4
20260831075804 61 147 0.9 2.6 0.00 0.00 0.00 92 1022.8
20260831075723 61 314 0.9 1.7 0.00 0.00 0.00 92 1023.3
20260831075306 61 146 0.9 1.7 0.00 0.00 0.00 92 1022.8
20260831075002 60 269 0.0 1.7 0.00 0.00 0.00 92 1023.3
20260831074804 60 240 0.9 2.6 0.00 0.00 0.00 92 1022.7
20260831074545 60 137 0.9 1.7 0.00 0.00 0.00 100 1023.9
20260831074508 60 142 1.7 1.7 0.00 0.00 0.00 92 1023.3
20260831074303 60 58 0.9 1.7 0.00 0.00 0.00 92 1022.7
20260831074003 60 336 0.9 1.7 0.00 0.00 0.00 92 1023.2
20260831073803 60 264 0.9 0.9 0.00 0.00 0.00 92 1022.5
20260831073501 60 152 0.9 0.9 0.00 0.00 0.00 92 1023.1
20260831073303 60 194 0.0 1.7 0.00 0.00 0.00 92 1022.6
20260831073110 59 0 0.0 1.7 0.00 0.00 0.00 100 1023.7
20260831073002 60 178 0.9 1.7 0.00 0.00 0.00 92 1023.2
20260831072804 60 340 0.9 0.9 0.00 0.00 0.00 92 1022.5
20260831072502 60 303 0.0 1.7 0.00 0.00 0.00 92 1023.1
20260831072306 60 158 0.9 1.7 0.00 0.00 0.00 92 1022.4
20260831072003 60 161 0.9 1.7 0.00 0.00 0.00 92 1023.0
20260831071721 60 314 0.9 1.7 0.00 0.00 0.00 92 1023.0
20260831071551 59 9 0.9 1.7 0.00 0.00 0.00 100 1023.6
20260831071305 59 348 0.9 1.7 0.00 0.00 0.00 92 1022.4
20260831071003 59 161 0.9 2.6 0.00 0.00 0.00 92 1022.9
20260831070803 59 163 0.9 2.6 0.00 0.00 0.00 91 1022.3
20260831070501 60 341 0.9 2.6 0.00 0.00 0.00 92 1022.9
20260831070048 65 221 0.9 1.7 0.00 0.00 0.00 100 1023.4
20260831070002 59 223 0.9 2.6 0.00 0.00 0.00 91 1022.9
20260831065803 59 180 0.9 2.6 0.00 0.00 0.00 91 1022.2
20260831065723 60 1 0.9 2.6 0.00 0.00 0.00 92 1022.7
20260831065002 60 314 1.7 2.6 0.00 0.00 0.00 92 1022.6
20260831064804 60 158 0.9 2.6 0.00 0.00 0.00 92 1022.1
20260831064546 65 178 0.0 0.9 0.00 0.00 0.00 100 1023.2
20260831064502 60 223 0.9 0.9 0.00 0.00 0.00 91 1022.6
20260831064304 60 162 0.9 1.7 0.00 0.00 0.00 91 1022.1
20260831064002 60 135 0.0 0.9 0.00 0.00 0.00 91 1022.5
20260831063804 60 0 0.0 0.9 0.00 0.00 0.00 91 1022.1
20260831063502 60 1 0.0 1.7 0.00 0.00 0.00 91 1022.5
20260831063303 60 207 0.0 1.7 0.00 0.00 0.00 91 1022.0
20260831063045 65 0 0.9 1.7 0.00 0.00 0.00 100 1023.1
20260831063002 60 223 0.9 1.7 0.00 0.00 0.00 91 1022.5
20260831062502 60 178 0.9 1.7 0.00 0.00 0.00 91 1022.4
20260831062306 60 160 0.9 1.7 0.00 0.00 0.00 91 1021.9
20260831062003 60 178 0.0 0.9 0.00 0.00 0.00 91 1022.4
20260831061804 60 223 0.9 0.9 0.00 0.00 0.00 91 1021.9
20260831061542 65 0 0.0 0.9 0.00 0.00 0.00 100 1023.1
20260831061503 60 223 0.0 1.7 0.00 0.00 0.00 91 1022.4
20260831061304 60 172 0.0 1.7 0.00 0.00 0.00 91 1021.9
20260831061002 60 157 0.9 3.5 0.00 0.00 0.00 91 1022.4
20260831060803 60 145 0.9 2.6 0.00 0.00 0.00 91 1021.8
20260831060503 60 137 0.9 3.5 0.00 0.00 0.00 91 1022.3
20260831060304 60 172 0.9 2.6 0.00 0.00 0.00 91 1021.9
20260831060223 60 223 0.9 1.7 0.00 0.00 0.00 91 1022.3
20260831060054 65 165 0.0 0.9 0.00 0.00 0.00 100 1023.1
20260831055804 60 165 0.0 0.9 0.00 0.00 0.00 91 1021.9
20260831055503 60 269 0.0 0.9 0.00 0.00 0.00 91 1022.4
20260831055306 60 232 0.0 1.7 0.00 0.00 0.00 91 1021.9
20260831055001 60 178 0.9 0.9 0.00 0.00 0.00 91 1022.4
20260831054550 65 0 0.0 0.9 0.00 0.00 0.00 100 1023.0
20260831054502 60 223 0.0 1.7 0.00 0.00 0.00 91 1022.3
20260831054304 60 219 0.0 0.9 0.00 0.00 0.00 91 1021.8
20260831054003 60 45 0.0 1.7 0.00 0.00 0.00 91 1022.3
20260831053804 60 225 0.9 1.7 0.00 0.00 0.00 91 1021.8
20260831053501 60 145 0.9 1.7 0.00 0.00 0.00 91 1022.2
20260831053304 60 155 0.9 1.7 0.00 0.00 0.00 91 1021.7
20260831053048 65 153 0.9 1.7 0.00 0.00 0.00 100 1022.9
20260831053003 60 178 0.9 0.9 0.00 0.00 0.00 91 1022.2
20260831052502 60 45 0.0 0.9 0.00 0.00 0.00 91 1022.2
20260831052306 60 147 0.9 1.7 0.00 0.00 0.00 91 1021.7
20260831052002 60 223 0.0 1.7 0.00 0.00 0.00 91 1022.3
20260831051803 60 209 0.0 1.7 0.00 0.00 0.00 91 1021.7
20260831051544 65 157 0.9 1.7 0.00 0.00 0.00 100 1022.9
20260831051504 60 178 0.9 1.7 0.00 0.00 0.00 91 1022.2
20260831051003 60 135 0.9 1.7 0.00 0.00 0.00 90 1022.2
20260831050803 60 167 0.9 0.9 0.00 0.00 0.00 90 1021.7
20260831050503 60 1 0.0 0.9 0.00 0.00 0.00 90 1022.3
20260831050303 60 253 0.0 0.9 0.00 0.00 0.00 90 1021.8
20260831050046 65 0 0.0 0.9 0.00 0.00 0.00 100 1022.8
20260831050002 60 45 0.0 0.9 0.00 0.00 0.00 90 1022.2
20260831045503 60 241 0.0 1.7 0.00 0.00 0.00 91 1022.1
20260831045306 60 126 0.0 0.9 0.00 0.00 0.00 91 1021.6
20260831045004 60 135 0.0 1.7 0.00 0.00 0.00 90 1022.1
20260831044554 65 171 0.9 1.7 0.00 0.00 0.00 100 1022.6
20260831044502 60 152 0.9 1.7 0.00 0.00 0.00 90 1022.1
20260831044304 60 153 0.9 1.7 0.00 0.00 0.00 90 1021.6
20260831044002 60 206 0.0 1.7 0.00 0.00 0.00 90 1022.1
20260831043804 60 264 0.0 1.7 0.00 0.00 0.00 90 1021.5
20260831043502 60 45 0.0 1.7 0.00 0.00 0.00 90 1022.1
20260831043304 60 159 0.9 1.7 0.00 0.00 0.00 90 1021.6
20260831043226 60 269 0.0 1.7 0.00 0.00 0.00 90 1022.1
20260831043047 65 0 0.0 0.9 0.00 0.00 0.00 100 1022.5
20260831042727 60 178 0.9 1.7 0.00 0.00 0.00 90 1022.0
20260831042306 60 162 0.0 2.6 0.00 0.00 0.00 90 1021.6
20260831042002 60 178 0.9 1.7 0.00 0.00 0.00 90 1022.0
20260831041804 60 156 0.9 1.7 0.00 0.00 0.00 90 1021.6
20260831041706 60 127 0.9 1.7 0.00 0.00 0.00 90 1022.1
20260831041654 60 178 0.9 1.7 0.00 0.00 0.00 90 1022.0
20260831041553 65 360 0.9 1.7 0.00 0.00 0.00 100 1022.6
20260831040804 60 163 0.9 1.7 0.00 0.00 0.00 90 1021.6
20260831040734 60 145 0.9 1.7 0.00 0.00 0.00 90 1022.0
20260831040303 60 140 0.9 1.7 0.00 0.00 0.00 90 1021.6
20260831040043 65 0 0.9 2.6 0.00 0.00 0.00 100 1022.6
20260831040002 60 168 1.7 2.6 0.00 0.00 0.00 90 1022.1
20260831035504 60 161 1.7 2.6 0.00 0.00 0.00 90 1022.1
20260831035306 60 154 0.9 2.6 0.00 0.00 0.00 90 1021.7
20260831035002 60 148 0.9 2.6 0.00 0.00 0.00 90 1022.1
20260831034805 60 163 0.9 1.7 0.00 0.00 0.00 90 1021.7
20260831034720 60 152 0.9 2.6 0.00 0.00 0.00 90 1022.2
20260831034549 65 111 0.9 1.7 0.00 0.00 0.00 100 1022.7
20260831034230 60 223 0.9 2.6 0.00 0.00 0.00 90 1022.2
20260831033502 60 161 0.9 1.7 0.00 0.00 0.00 89 1022.3
20260831033303 60 160 0.9 1.7 0.00 0.00 0.00 89 1021.8
20260831033043 65 0 0.9 1.7 0.00 0.00 0.00 100 1022.8
20260831033003 60 135 0.9 1.7 0.00 0.00 0.00 89 1022.2
20260831032504 60 89 0.9 1.7 0.00 0.00 0.00 89 1022.2
20260831032306 60 167 0.9 1.7 0.00 0.00 0.00 89 1021.8
20260831032002 60 145 1.7 1.7 0.00 0.00 0.00 89 1022.2
20260831031804 60 155 0.9 1.7 0.00 0.00 0.00 88 1021.7
20260831031544 65 0 0.0 0.9 0.00 0.00 0.00 100 1022.7
20260831031502 60 178 0.0 1.7 0.00 0.00 0.00 88 1022.2
20260831031457 60 178 0.0 1.7 0.00 0.00 0.00 88 1022.3
20260831031304 60 190 0.0 0.9 0.00 0.00 0.00 88 1021.7
20260831030804 61 172 0.9 1.7 0.00 0.00 0.00 88 1021.8
20260831030502 61 178 0.9 1.7 0.00 0.00 0.00 88 1022.2
20260831030304 61 156 0.9 1.7 0.00 0.00 0.00 88 1021.7
20260831030043 65 0 0.0 1.7 0.00 0.00 0.00 100 1022.7
20260831030002 61 135 0.9 1.7 0.00 0.00 0.00 88 1022.2
20260831025503 61 152 0.9 1.7 0.00 0.00 0.00 88 1022.2
20260831025306 61 148 0.9 2.6 0.00 0.00 0.00 88 1021.8
20260831025004 61 145 0.9 2.6 0.00 0.00 0.00 88 1022.2
20260831024804 61 164 0.9 2.6 0.00 0.00 0.00 88 1021.8
20260831024548 65 162 0.9 1.7 0.00 0.00 0.00 100 1022.7
20260831024502 61 165 1.7 2.6 0.00 0.00 0.00 88 1022.2
20260831024002 61 152 0.9 2.6 0.00 0.00 0.00 88 1022.1
20260831023804 61 146 0.9 2.6 0.00 0.00 0.00 88 1021.8
20260831023502 61 145 1.7 2.6 0.00 0.00 0.00 88 1022.2
20260831023304 61 148 0.9 2.6 0.00 0.00 0.00 88 1021.7
20260831023227 61 135 0.9 2.6 0.00 0.00 0.00 88 1022.2
20260831023045 65 162 0.9 2.6 0.00 0.00 0.00 100 1022.6
20260831022804 61 158 0.9 2.6 0.00 0.00 0.00 88 1021.8
20260831022505 61 142 0.9 2.6 0.00 0.00 0.00 88 1022.2
20260831022319 61 127 1.7 2.6 0.00 0.00 0.00 88 1022.1
20260831021547 65 146 1.7 2.6 0.00 0.00 0.00 100 1022.6
20260831021505 61 157 1.7 2.6 0.00 0.00 0.00 88 1022.1
20260831021303 61 153 1.7 2.6 0.00 0.00 0.00 88 1021.7
20260831021005 61 165 1.7 2.6 0.00 0.00 0.00 88 1022.2
20260831020804 61 159 0.9 2.6 0.00 0.00 0.00 88 1021.7
20260831020507 61 171 1.7 2.6 0.00 0.00 0.00 88 1022.1
20260831020304 61 165 0.9 2.6 0.00 0.00 0.00 88 1021.6
20260831020044 65 158 0.9 1.7 0.00 0.00 0.00 100 1022.5
20260831020002 61 157 1.7 2.6 0.00 0.00 0.00 88 1022.0
20260831015803 61 163 0.9 1.7 0.00 0.00 0.00 88 1021.6
20260831015512 61 178 0.9 1.7 0.00 0.00 0.00 88 1022.0
20260831015306 61 139 0.9 1.7 0.00 0.00 0.00 88 1021.6
20260831015002 61 45 0.9 1.7 0.00 0.00 0.00 88 1022.0
20260831014804 61 145 0.9 1.7 0.00 0.00 0.00 88 1021.6
20260831014549 65 144 0.0 1.7 0.00 0.00 0.00 100 1022.6
20260831014510 61 168 0.9 1.7 0.00 0.00 0.00 88 1022.0
20260831014303 61 154 0.9 2.6 0.00 0.00 0.00 88 1021.6
20260831014243 61 157 0.9 1.7 0.00 0.00 0.00 88 1022.0
20260831013804 61 148 0.9 1.7 0.00 0.00 0.00 88 1021.5
20260831013506 61 128 0.9 2.6 0.00 0.00 0.00 88 1022.0
20260831013304 61 163 0.9 2.6 0.00 0.00 0.00 88 1021.5
20260831013225 61 165 0.9 2.6 0.00 0.00 0.00 87 1022.0
20260831013053 65 178 0.9 1.7 0.00 0.00 0.00 100 1022.5
20260831013005 61 165 0.9 2.6 0.00 0.00 0.00 87 1022.0
20260831012804 61 158 0.9 2.6 0.00 0.00 0.00 87 1021.5
20260831012734 61 142 0.9 2.6 0.00 0.00 0.00 87 1021.9
20260831012306 61 169 0.9 2.6 0.00 0.00 0.00 87 1021.5
20260831012003 61 152 0.9 2.6 0.00 0.00 0.00 87 1022.0
20260831011547 65 149 0.9 1.7 0.00 0.00 0.00 100 1022.6
20260831011504 61 135 1.7 2.6 0.00 0.00 0.00 87 1022.1
20260831011304 61 164 0.9 2.6 0.00 0.00 0.00 87 1021.5
20260831011007 61 161 1.7 2.6 0.00 0.00 0.00 88 1021.9
20260831010803 61 146 1.7 2.6 0.00 0.00 0.00 88 1021.5
20260831010751 61 161 0.9 2.6 0.00 0.00 0.00 88 1022.0
20260831010304 61 160 1.7 4.3 0.00 0.00 0.00 88 1021.5
20260831010003 61 152 0.9 1.7 0.00 0.00 0.00 88 1022.0
20260831005803 61 145 0.9 1.7 0.00 0.00 0.00 88 1021.5
20260831005502 61 142 0.9 1.7 0.00 0.00 0.00 88 1022.0
20260831005306 61 152 0.9 2.6 0.00 0.00 0.00 88 1021.5
20260831005234 61 152 0.9 1.7 0.00 0.00 0.00 87 1022.0
20260831005005 61 152 0.9 1.7 0.00 0.00 0.00 87 1022.0
20260831004803 61 164 0.9 1.7 0.00 0.00 0.00 87 1021.7
20260831004544 65 165 0.0 1.7 0.00 0.00 0.00 100 1022.6
20260831004503 61 152 0.9 1.7 0.00 0.00 0.00 87 1022.1
20260831004303 61 160 0.9 1.7 0.00 0.00 0.00 87 1021.7
20260831004012 61 152 0.9 2.6 0.00 0.00 0.00 87 1022.2
20260831003804 61 160 0.9 1.7 0.00 0.00 0.00 87 1021.7
20260831003504 61 152 0.9 2.6 0.00 0.00 0.00 87 1022.2
20260831003303 61 141 0.9 2.6 0.00 0.00 0.00 87 1021.7
20260831003054 65 153 0.9 1.7 0.00 0.00 0.00 100 1022.8
20260831003003 61 165 0.9 1.7 0.00 0.00 0.00 87 1022.2
20260831002803 61 166 0.9 1.7 0.00 0.00 0.00 87 1021.7
20260831002502 61 171 0.9 1.7 0.00 0.00 0.00 87 1022.2
20260831002001 61 135 0.9 2.6 0.00 0.00 0.00 87 1022.3
20260831001804 61 162 0.9 2.6 0.00 0.00 0.00 87 1021.7
20260831001548 65 153 0.9 1.7 0.00 0.00 0.00 100 1022.8
20260831001503 61 145 0.9 2.6 0.00 0.00 0.00 86 1022.2
20260831001303 61 163 0.9 1.7 0.00 0.00 0.00 86 1021.8
20260831001002 61 165 0.9 2.6 0.00 0.00 0.00 86 1022.3
20260831000803 61 165 0.9 1.7 0.00 0.00 0.00 86 1021.8
20260831000503 61 165 0.9 2.6 0.00 0.00 0.00 86 1022.3
20260831000304 61 153 0.9 2.6 0.00 0.00 0.00 86 1021.8
20260831000045 65 165 0.9 1.7 0.00 0.00 0.00 100 1022.8
20260831000002 61 178 0.9 2.6 0.00 0.00 0.00 85 1022.3
20260830235803 61 170 0.9 2.6 0.00 0.00 0.00 85 1021.7
20260830235502 61 178 1.7 2.6 0.00 0.00 0.00 85 1022.3
20260830235306 61 148 1.7 4.3 0.00 0.00 0.00 86 1021.7
20260830235220 61 140 0.9 2.6 0.00 0.00 0.00 86 1022.3
20260830234804 61 164 0.9 2.6 0.00 0.00 0.00 86 1021.7
20260830234546 65 221 0.9 2.6 0.00 0.00 0.00 100 1022.9
20260830234504 61 152 0.9 3.5 0.00 0.00 0.00 86 1022.3
20260830234304 61 174 0.9 2.6 0.00 0.00 0.00 85 1021.7
20260830234002 61 206 0.9 3.5 0.00 0.00 0.00 85 1022.3
20260830233804 61 156 0.9 2.6 0.00 0.00 0.00 85 1021.7
20260830233504 61 190 0.9 1.7 0.00 0.00 0.00 85 1022.3
20260830233303 61 166 0.9 1.7 0.00 0.00 0.00 85 1021.7
20260830233044 65 178 0.9 1.7 0.00 0.00 0.00 100 1022.9
20260830233003 61 145 0.9 2.6 0.00 0.00 0.00 85 1022.4
20260830232503 61 152 0.9 2.6 0.00 0.00 0.00 84 1022.3
20260830232305 62 149 1.7 2.6 0.00 0.00 0.00 84 1021.7
20260830232003 62 165 1.7 2.6 0.00 0.00 0.00 84 1022.4
20260830231549 65 146 0.9 1.7 0.00 0.00 0.00 100 1022.9
20260830231504 62 45 0.9 1.7 0.00 0.00 0.00 84 1022.3
20260830231304 62 170 0.9 1.7 0.00 0.00 0.00 84 1021.9
20260830231229 62 161 0.9 1.7 0.00 0.00 0.00 84 1022.4
20260830230803 62 163 0.9 2.6 0.00 0.00 0.00 84 1021.9
20260830230504 62 168 0.9 1.7 0.00 0.00 0.00 84 1022.5
20260830230046 65 178 0.9 1.7 0.00 0.00 0.00 100 1023.0
20260830230002 62 152 0.9 1.7 0.00 0.00 0.00 84 1022.5
20260830225803 62 165 0.9 1.7 0.00 0.00 0.00 84 1021.9
20260830225504 62 148 0.9 1.7 0.00 0.00 0.00 84 1022.5
20260830225229 62 178 0.9 1.7 0.00 0.00 0.00 83 1022.5
20260830224803 62 173 0.9 1.7 0.00 0.00 0.00 83 1021.9
20260830224543 65 178 0.0 0.9 0.00 0.00 0.00 100 1023.1
20260830224502 62 178 0.9 1.7 0.00 0.00 0.00 82 1022.4
20260830224303 62 179 0.0 1.7 0.00 0.00 0.00 82 1021.9
20260830224002 62 314 0.0 1.7 0.00 0.00 0.00 82 1022.4
20260830223503 63 135 0.0 0.9 0.00 0.00 0.00 81 1022.5
20260830223303 63 144 0.0 0.9 0.00 0.01 0.00 81 1021.9
20260830223044 65 0 0.0 0.9 0.00 0.00 0.00 100 1023.0
20260830223003 63 178 0.0 0.9 0.00 0.00 0.00 81 1022.4
20260830222804 63 140 0.0 0.9 0.00 0.01 0.00 81 1021.9
20260830222728 63 223 0.0 0.9 0.00 0.00 0.00 81 1022.5
20260830222306 63 136 0.0 0.9 0.00 0.01 0.00 81 1021.9
20260830222003 63 178 0.0 0.9 0.00 0.00 0.00 81 1022.4
20260830221804 63 174 0.0 0.9 0.00 0.01 0.00 81 1021.8
20260830221547 65 196 0.0 1.7 0.00 0.00 0.00 100 1023.0
20260830221503 63 178 0.0 2.6 0.00 0.00 0.00 81 1022.4
20260830221453 63 171 0.9 2.6 0.00 0.00 0.00 80 1022.3
20260830221304 63 168 0.0 1.7 0.00 0.01 0.00 81 1021.8
20260830220502 63 178 0.9 1.7 0.00 0.00 0.00 80 1022.3
20260830220304 63 164 0.9 1.7 0.00 0.01 0.00 80 1021.7
20260830220046 65 0 0.0 0.9 0.00 0.00 0.00 100 1022.8
20260830220002 63 178 0.0 1.7 0.00 0.00 0.00 80 1022.4
20260830215503 64 178 0.0 1.7 0.00 0.00 0.00 79 1022.4
20260830215305 64 175 0.0 1.7 0.00 0.01 0.01 79 1021.8
20260830215224 64 145 0.9 1.7 0.00 0.00 0.00 79 1022.3
20260830214804 64 179 0.0 0.9 0.00 0.01 0.01 79 1021.7
20260830214543 65 0 0.0 0.9 0.00 0.00 0.00 100 1022.8
20260830214502 64 152 0.0 0.9 0.00 0.00 0.00 78 1022.2
20260830214003 64 178 0.9 0.9 0.00 0.00 0.00 78 1022.3
20260830213804 64 244 0.0 0.9 0.00 0.01 0.01 78 1021.7
20260830213505 64 206 0.0 0.9 0.00 0.00 0.00 78 1022.3
20260830213304 64 25 0.0 0.9 0.00 0.01 0.01 77 1021.7
20260830213043 65 0 0.0 0.9 0.00 0.00 0.00 100 1022.9
20260830213002 64 223 0.0 0.9 0.00 0.00 0.00 77 1022.2
20260830212804 64 243 0.0 0.9 0.00 0.01 0.01 77 1021.6
20260830212502 64 45 0.0 1.7 0.00 0.00 0.00 77 1022.2
20260830212003 65 178 0.0 1.7 0.00 0.00 0.00 77 1022.1
20260830211804 65 212 0.9 1.7 0.00 0.01 0.01 77 1021.6
20260830211542 65 0 0.0 0.9 0.00 0.00 0.00 100 1022.8
20260830211503 65 223 0.0 0.9 0.00 0.00 0.00 77 1022.2
20260830211303 65 264 0.0 0.9 0.00 0.01 0.01 77 1021.6
20260830211001 65 269 0.0 0.9 0.00 0.00 0.00 77 1022.2
20260830210804 65 153 0.0 0.9 0.00 0.01 0.01 77 1021.5
20260830210502 65 178 0.0 1.7 0.00 0.00 0.00 77 1022.1
20260830210303 65 168 0.0 0.9 0.00 0.01 0.01 77 1021.4
20260830210044 65 0 0.0 0.9 0.00 0.00 0.00 100 1022.6
20260830210003 65 269 0.9 1.7 0.00 0.00 0.00 77 1022.0
20260830205503 65 178 0.0 2.6 0.00 0.00 0.00 77 1022.0
20260830205305 65 148 0.0 0.9 0.00 0.01 0.01 77 1021.4
20260830205003 65 314 0.9 2.6 0.00 0.00 0.00 77 1022.0
20260830204804 65 164 0.9 2.6 0.00 0.01 0.01 77 1021.3
20260830204548 65 93 0.9 1.7 0.00 0.00 0.00 100 1022.5
20260830204501 65 145 0.9 1.7 0.00 0.00 0.00 78 1021.9
20260830204304 65 173 0.9 1.7 0.00 0.01 0.01 78 1021.2
20260830204224 65 152 0.0 1.7 0.00 0.00 0.00 78 1021.9
20260830203803 65 164 0.9 1.7 0.00 0.01 0.01 78 1021.3
20260830203723 65 145 0.9 1.7 0.00 0.00 0.00 79 1021.8
20260830203304 65 155 0.0 0.9 0.00 0.01 0.01 79 1021.2
20260830203222 65 45 0.9 0.9 0.00 0.00 0.00 79 1021.7
20260830203045 65 0 0.0 0.9 0.00 0.00 0.00 100 1022.4
20260830202502 65 152 0.0 0.9 0.00 0.00 0.00 78 1021.7
20260830202002 65 178 0.0 0.9 0.00 0.00 0.00 78 1021.6
20260830201804 65 159 0.0 0.9 0.00 0.01 0.01 78 1021.0
20260830201544 65 146 0.9 0.9 0.00 0.00 0.00 100 1022.1
20260830201503 65 152 0.9 1.7 0.00 0.00 0.00 78 1021.5
20260830201004 65 152 0.0 1.7 0.00 0.00 0.00 78 1021.5
20260830200503 66 145 0.9 0.9 0.00 0.00 0.00 77 1021.4
20260830200304 66 134 0.9 0.9 0.00 0.01 0.01 77 1020.8
20260830200043 65 120 0.0 0.9 0.00 0.00 0.00 100 1022.0
20260830200001 66 135 0.9 0.9 0.00 0.00 0.00 77 1021.3
20260830195503 66 178 0.0 0.9 0.00 0.00 0.00 76 1021.3
20260830195305 66 152 0.0 0.9 0.00 0.01 0.01 76 1020.7
20260830195222 67 178 0.0 0.9 0.00 0.00 0.00 76 1021.1
20260830194803 67 167 0.0 0.9 0.00 0.01 0.01 75 1020.5
20260830194601 66 0 0.0 0.9 0.00 0.00 0.00 100 1021.7
20260830194502 67 145 0.9 0.9 0.00 0.00 0.00 75 1021.0
20260830194304 67 310 0.0 1.7 0.00 0.01 0.01 75 1020.4
20260830194003 67 314 0.0 0.9 0.00 0.00 0.00 75 1021.0
20260830193803 67 212 0.0 0.9 0.00 0.01 0.01 75 1020.3
20260830193502 67 178 0.0 1.7 0.00 0.00 0.00 75 1020.9
20260830193304 68 215 0.0 0.9 0.00 0.01 0.01 75 1020.3
20260830193044 67 0 0.9 0.9 0.00 0.00 0.00 100 1021.5
20260830193002 68 45 0.0 1.7 0.00 0.00 0.00 75 1020.9
20260830192804 68 114 0.0 1.7 0.00 0.01 0.01 75 1020.2
20260830192732 68 269 0.0 0.9 0.00 0.00 0.00 75 1020.8
20260830192452 68 178 0.0 1.7 0.00 0.00 0.00 75 1020.7
20260830192305 68 320 0.0 0.9 0.00 0.01 0.01 75 1020.1
20260830191803 68 206 0.0 1.7 0.00 0.01 0.01 75 1020.1
20260830191543 68 0 0.0 0.9 0.00 0.00 0.00 100 1021.4
20260830191502 68 45 0.9 1.7 0.00 0.00 0.00 75 1020.6
20260830191304 68 213 0.0 1.7 0.00 0.01 0.01 75 1020.1
20260830191228 68 1 0.9 2.6 0.00 0.00 0.00 74 1020.7
20260830190803 69 265 0.9 2.6 0.00 0.01 0.01 74 1020.0
20260830190502 69 269 0.9 3.5 0.00 0.00 0.00 74 1020.5
20260830190304 69 321 0.9 2.6 0.00 0.01 0.01 74 1019.9
20260830190043 68 325 0.9 1.7 0.00 0.00 0.00 100 1021.2
20260830190002 69 283 1.7 3.5 0.00 0.00 0.00 74 1020.5
20260830185804 69 4 0.9 2.6 0.00 0.01 0.01 74 1019.9
20260830185503 69 320 0.9 2.6 0.00 0.00 0.00 74 1020.5
20260830185306 69 319 0.9 2.6 0.00 0.01 0.01 74 1019.9
20260830185003 69 16 0.9 5.2 0.00 0.00 0.00 73 1020.5
20260830184803 69 318 0.9 2.6 0.00 0.01 0.01 73 1019.8
20260830184727 69 343 1.7 5.2 0.00 0.00 0.00 73 1020.4
20260830184547 69 313 2.6 7.0 0.00 0.00 0.00 100 1021.1
20260830184304 69 335 1.7 7.0 0.00 0.01 0.01 73 1019.8
20260830184003 69 296 0.9 4.3 0.00 0.00 0.00 73 1020.4
20260830183804 70 293 1.7 2.6 0.00 0.01 0.01 73 1019.7
20260830183501 70 314 0.9 4.3 0.00 0.00 0.00 74 1020.4
20260830183304 70 305 1.7 4.3 0.00 0.01 0.01 73 1019.8
20260830183046 69 0 0.0 7.8 0.00 0.00 0.00 100 1021.0
20260830183002 70 290 1.7 7.8 0.00 0.00 0.00 73 1020.4
20260830182804 70 302 1.7 4.3 0.00 0.01 0.01 73 1019.7
20260830182500 70 323 2.6 7.8 0.00 0.00 0.00 72 1020.3
20260830182306 70 322 1.7 7.8 0.00 0.01 0.01 73 1019.7
20260830182212 70 197 0.9 6.1 0.00 0.00 0.00 73 1020.2
20260830181803 70 282 1.7 7.0 0.00 0.01 0.01 73 1019.6
20260830181542 70 230 0.9 4.3 0.00 0.00 0.00 100 1020.9
20260830181445 71 89 2.6 6.1 0.00 0.00 0.00 72 1020.2
20260830181304 71 317 1.7 5.2 0.00 0.01 0.01 71 1019.6
20260830181202 71 336 1.7 6.1 0.00 0.00 0.00 71 1020.1
20260830180431 71 310 2.6 6.1 0.00 0.00 0.00 70 1020.1
20260830180304 71 318 3.5 7.0 0.00 0.01 0.01 70 1019.5
20260830180042 71 303 1.7 5.2 0.00 0.00 0.00 100 1020.8
20260830175931 72 290 2.6 6.1 0.00 0.00 0.00 69 1020.1
20260830175431 72 347 2.6 6.1 0.00 0.00 0.00 69 1020.1
20260830175416 72 326 0.9 7.8 0.00 0.00 0.00 69 1020.1
20260830175306 72 303 2.6 5.2 0.00 0.01 0.01 69 1019.5
20260830174804 72 298 2.6 7.8 0.00 0.01 0.01 69 1019.4
20260830174606 72 342 4.3 7.0 0.00 0.00 0.00 100 1020.7
20260830174437 72 351 3.5 7.8 0.00 0.00 0.00 69 1020.0
20260830174304 72 299 1.7 7.0 0.00 0.01 0.01 69 1019.4
20260830173932 72 348 2.6 6.1 0.00 0.00 0.00 69 1020.1
20260830173804 72 329 2.6 8.7 0.00 0.01 0.01 68 1019.3
20260830173407 73 329 3.5 6.1 0.00 0.00 0.00 69 1019.9
20260830173304 73 317 2.6 6.1 0.00 0.01 0.01 68 1019.3
20260830173043 72 317 1.7 6.1 0.00 0.00 0.00 100 1020.7
20260830172905 73 334 1.7 6.1 0.00 0.00 0.00 69 1019.9
20260830172804 73 317 2.6 7.0 0.00 0.01 0.01 68 1019.3
20260830172434 73 313 3.5 7.8 0.00 0.00 0.00 68 1019.9
20260830172306 73 323 3.5 7.0 0.00 0.01 0.01 68 1019.3
20260830171904 73 303 3.5 7.8 0.00 0.00 0.00 67 1019.8
20260830171804 73 323 2.6 7.8 0.00 0.01 0.01 67 1019.2
20260830171631 73 45 1.7 5.2 0.00 0.00 0.00 67 1019.8
20260830171545 73 34 0.9 7.0 0.00 0.00 0.00 100 1020.5
20260830171304 73 335 1.7 6.1 0.00 0.01 0.01 67 1019.1
20260830170904 73 327 2.6 5.2 0.00 0.00 0.00 67 1019.7
20260830170804 73 299 2.6 7.0 0.00 0.01 0.01 67 1019.1
20260830170407 73 296 1.7 7.8 0.00 0.00 0.00 67 1019.7
20260830170304 73 316 2.6 7.0 0.00 0.01 0.01 67 1019.1
20260830170125 73 351 2.6 7.8 0.00 0.00 0.00 67 1019.7
20260830170047 73 306 2.6 5.2 0.00 0.00 0.00 100 1020.4
20260830165804 73 315 2.6 8.7 0.00 0.01 0.01 67 1019.0
20260830165631 73 347 3.5 6.1 0.00 0.00 0.00 67 1019.7
20260830165306 73 271 1.7 7.8 0.00 0.01 0.01 68 1019.0
20260830164907 73 302 3.5 7.8 0.00 0.00 0.00 67 1019.6
20260830164903 73 216 3.5 7.8 0.00 0.00 0.00 67 1019.6
20260830164804 73 314 2.6 7.8 0.00 0.01 0.01 67 1019.0
20260830164544 73 254 1.7 4.3 0.00 0.00 0.00 100 1020.3
20260830164304 73 317 2.6 7.8 0.00 0.01 0.01 67 1019.0
20260830163903 73 320 2.6 6.1 0.00 0.00 0.00 66 1019.6
20260830163405 74 351 2.6 7.8 0.00 0.00 0.00 67 1019.6
20260830163304 74 331 2.6 7.8 0.00 0.01 0.01 66 1019.0
20260830163054 74 22 4.3 7.8 0.00 0.00 0.00 100 1020.3
20260830162904 74 344 3.5 7.8 0.00 0.00 0.00 66 1019.6
20260830162405 74 286 1.7 6.1 0.00 0.00 0.00 66 1019.6
20260830162306 74 305 2.6 7.0 0.00 0.01 0.01 66 1018.9
20260830161903 74 1 1.7 6.1 0.00 0.00 0.00 65 1019.5
20260830161804 74 354 2.6 7.8 0.00 0.01 0.01 65 1018.9
20260830161558 74 15 2.6 5.2 0.00 0.00 0.00 100 1020.2
20260830161404 74 336 1.7 6.1 0.00 0.00 0.00 66 1019.5
20260830161303 74 326 1.7 4.3 0.00 0.01 0.01 66 1018.8
20260830161125 74 250 2.6 4.3 0.00 0.00 0.00 66 1019.5
20260830160804 74 326 3.5 7.8 0.00 0.01 0.01 66 1018.8
20260830160633 74 351 1.7 6.1 0.00 0.00 0.00 67 1019.6
20260830160043 73 9 2.6 7.0 0.00 0.00 0.00 100 1020.3
20260830155903 74 302 3.5 7.8 0.00 0.00 0.00 65 1019.6
20260830155803 74 333 2.6 7.0 0.00 0.01 0.01 66 1019.0
20260830155403 74 344 1.7 7.8 0.00 0.00 0.00 66 1019.6
20260830155306 74 356 2.6 7.8 0.00 0.01 0.01 66 1018.9
20260830155124 74 28 2.6 6.1 0.00 0.00 0.00 67 1019.6
20260830154803 73 307 2.6 7.0 0.00 0.01 0.01 66 1018.9
20260830154548 73 312 2.6 5.2 0.00 0.00 0.00 100 1020.2
20260830154403 73 350 2.6 6.1 0.00 0.00 0.00 67 1019.5
20260830154303 73 313 2.6 7.0 0.00 0.01 0.01 67 1018.9
20260830153904 73 341 2.6 6.1 0.00 0.00 0.00 66 1019.6
20260830153803 73 280 2.6 7.8 0.00 0.01 0.01 65 1018.9
20260830153404 74 309 2.6 5.2 0.00 0.00 0.00 66 1019.5
20260830153303 74 304 2.6 6.1 0.00 0.01 0.01 65 1018.8
20260830153120 74 296 2.6 5.2 0.00 0.00 0.00 67 1019.5
20260830153047 73 330 1.7 4.3 0.00 0.00 0.00 100 1020.3
20260830152803 73 9 2.6 5.2 0.00 0.01 0.01 67 1018.9
20260830152402 73 16 1.7 5.2 0.00 0.00 0.00 66 1019.6
20260830152306 73 1 2.6 6.1 0.00 0.01 0.01 66 1018.9
20260830151902 74 316 1.7 5.2 0.00 0.00 0.00 65 1019.5
20260830151804 74 342 1.7 7.0 0.00 0.01 0.01 66 1018.9
20260830151547 73 236 1.7 6.1 0.00 0.00 0.00 100 1020.2
20260830151403 74 317 2.6 7.8 0.00 0.00 0.00 64 1019.5
20260830151304 74 336 3.5 8.7 0.00 0.01 0.01 64 1018.9
20260830150902 75 354 3.5 5.2 0.00 0.00 0.00 64 1019.5
20260830150804 75 313 2.6 7.0 0.00 0.01 0.01 64 1018.9
20260830150620 75 319 3.5 6.1 0.00 0.00 0.00 64 1019.5
20260830150304 75 340 2.6 7.0 0.00 0.01 0.01 65 1018.8
20260830150044 74 239 2.6 4.3 0.00 0.00 0.00 100 1020.1
20260830145903 74 330 3.5 6.1 0.00 0.00 0.00 66 1019.6
20260830145401 74 334 2.6 6.1 0.00 0.00 0.00 65 1019.5
20260830145306 74 302 2.6 10.4 0.00 0.01 0.01 65 1018.8
20260830144903 74 306 3.5 5.2 0.00 0.00 0.00 65 1019.5
20260830144804 74 340 2.6 7.8 0.00 0.01 0.01 66 1018.8
20260830144550 74 321 1.7 3.5 0.00 0.00 0.00 100 1020.1
20260830144401 74 313 2.6 5.2 0.00 0.00 0.00 65 1019.5
20260830144304 74 346 1.7 6.1 0.00 0.01 0.01 65 1018.8
20260830144123 74 314 2.6 7.8 0.00 0.00 0.00 67 1019.4
20260830143401 73 1 2.6 7.8 0.00 0.00 0.00 67 1019.4
20260830143304 73 356 2.6 7.8 0.00 0.01 0.01 65 1018.8
20260830143046 73 309 0.9 2.6 0.00 0.00 0.00 100 1020.1
20260830142902 73 317 0.9 4.3 0.00 0.00 0.00 67 1019.5
20260830142803 73 313 0.9 4.3 0.00 0.01 0.01 66 1018.8
20260830142401 73 42 1.7 4.3 0.00 0.00 0.00 66 1019.5
20260830142306 73 326 1.7 4.3 0.00 0.01 0.01 66 1018.9
20260830141902 74 269 0.9 7.8 0.00 0.00 0.00 65 1019.5
20260830141804 74 342 1.7 4.3 0.00 0.01 0.01 65 1018.9
20260830141542 74 329 0.9 4.3 0.00 0.00 0.00 100 1020.2
20260830141400 74 341 1.7 7.8 0.00 0.00 0.00 66 1019.4
20260830141304 74 336 2.6 7.8 0.00 0.01 0.01 66 1018.9
20260830141125 74 38 1.7 4.3 0.00 0.00 0.00 66 1019.5
20260830140400 75 63 1.7 3.5 0.00 0.00 0.00 64 1019.5
20260830140303 75 64 1.7 2.6 0.00 0.01 0.01 64 1018.9
20260830140100 75 38 0.9 3.5 0.00 0.00 0.00 100 1020.2
20260830135902 76 32 0.9 4.3 0.00 0.00 0.00 62 1019.6
20260830135804 76 21 1.7 4.3 0.00 0.01 0.01 61 1018.9
20260830135401 77 45 2.6 4.3 0.00 0.00 0.00 59 1019.5
20260830135306 78 40 1.7 5.2 0.00 0.01 0.01 58 1018.8
20260830134902 78 79 1.7 3.5 0.00 0.00 0.00 56 1019.5
20260830134805 78 82 1.7 2.6 0.00 0.01 0.01 54 1018.8
20260830134621 78 223 0.9 2.6 0.00 0.00 0.00 55 1019.6
20260830134544 78 298 0.9 1.7 0.00 0.00 0.00 100 1020.1
20260830133901 76 206 0.9 2.6 0.00 0.00 0.00 58 1019.5
20260830133804 76 210 0.9 2.6 0.00 0.01 0.01 59 1018.9
20260830133359 75 254 0.9 1.7 0.00 0.00 0.00 59 1019.6
20260830133304 75 201 0.9 1.7 0.00 0.01 0.01 60 1018.9
20260830133046 74 247 0.9 1.7 0.00 0.00 0.00 100 1020.2
20260830132901 75 314 0.9 1.7 0.00 0.00 0.00 59 1019.6
20260830132804 75 222 0.9 2.6 0.00 0.01 0.01 59 1018.9
20260830132359 75 193 0.9 4.3 0.00 0.00 0.00 59 1019.7
20260830132305 75 268 0.9 2.6 0.00 0.01 0.01 58 1019.0
20260830131900 75 351 1.7 4.3 0.00 0.00 0.00 60 1019.7
20260830131541 75 0 0.9 1.7 0.00 0.00 0.00 100 1020.4
20260830131400 75 234 0.9 2.6 0.00 0.00 0.00 60 1019.7
20260830131303 75 234 0.9 1.7 0.00 0.01 0.01 60 1019.0
20260830130900 75 241 0.9 2.6 0.00 0.00 0.00 59 1019.7
20260830130804 75 284 0.9 2.6 0.00 0.01 0.01 59 1019.1
20260830130622 75 283 0.9 3.5 0.00 0.00 0.00 60 1019.7
20260830130304 76 296 0.9 4.3 0.00 0.01 0.01 59 1019.1
20260830130054 75 329 0.9 4.3 0.00 0.00 0.00 100 1020.4
20260830125900 76 314 1.7 4.3 0.00 0.00 0.00 58 1019.7
20260830125849 76 1 1.7 5.2 0.00 0.00 0.00 59 1019.8
20260830125804 76 304 1.7 2.6 0.00 0.01 0.01 61 1019.1
20260830125628 76 1 1.7 5.2 0.00 0.00 0.00 59 1019.8
20260830125306 76 8 1.7 5.2 0.00 0.01 0.01 60 1019.2
20260830124900 76 319 2.6 5.2 0.00 0.00 0.00 56 1019.8
20260830124804 76 326 1.7 4.3 0.00 0.01 0.01 57 1019.2
20260830124547 76 9 0.9 2.6 0.00 0.00 0.00 100 1020.5
20260830124358 76 178 1.7 3.5 0.00 0.00 0.00 58 1019.8
20260830124304 76 323 1.7 2.6 0.00 0.01 0.01 58 1019.3
20260830123901 76 35 0.9 2.6 0.00 0.00 0.00 59 1019.9
20260830123804 76 265 0.9 1.7 0.00 0.01 0.01 58 1019.2
20260830123620 76 206 1.7 2.6 0.00 0.00 0.00 57 1019.8
20260830123304 76 244 0.9 2.6 0.00 0.01 0.01 59 1019.2
20260830123045 75 319 0.9 1.7 0.00 0.00 0.00 100 1020.5
20260830122857 76 210 0.9 1.7 0.00 0.00 0.00 58 1019.9
20260830122804 76 192 0.9 2.6 0.00 0.01 0.01 57 1019.2
20260830122623 76 241 0.9 2.6 0.00 0.00 0.00 58 1019.9
20260830121858 76 193 1.7 2.6 0.00 0.00 0.00 57 1019.8
20260830121803 76 217 0.9 2.6 0.00 0.01 0.01 57 1019.2
20260830121550 76 325 0.9 3.5 0.00 0.00 0.00 100 1020.5
20260830121400 76 286 1.7 3.5 0.00 0.00 0.00 59 1019.8
20260830121304 76 224 0.9 2.6 0.00 0.01 0.01 59 1019.3
20260830120858 76 303 1.7 4.3 0.00 0.00 0.00 56 1019.9
20260830120804 76 263 1.7 5.2 0.00 0.01 0.01 60 1019.3
20260830120358 76 276 1.7 4.3 0.00 0.00 0.00 58 1019.9
20260830120304 76 308 0.9 2.6 0.00 0.01 0.01 60 1019.3
20260830120045 76 309 0.9 1.7 0.00 0.00 0.00 100 1020.6
20260830115859 76 283 0.9 2.6 0.00 0.00 0.00 58 1020.0
20260830115804 76 7 0.9 1.7 0.00 0.01 0.01 58 1019.4
20260830115358 76 135 0.9 2.6 0.00 0.00 0.00 59 1019.9
20260830115116 76 223 0.9 2.6 0.00 0.00 0.00 61 1020.0
20260830114546 75 0 0.9 2.6 0.00 0.00 0.00 100 1020.5
20260830114357 75 237 1.7 3.5 0.00 0.00 0.00 59 1020.0
20260830114303 75 247 1.7 2.6 0.00 0.01 0.01 59 1019.4
20260830113857 75 234 1.7 3.5 0.00 0.00 0.00 61 1020.0
20260830113804 75 198 0.9 4.3 0.00 0.01 0.01 61 1019.5
20260830113357 75 220 1.7 4.3 0.00 0.00 0.00 62 1020.0
20260830113304 75 211 0.9 2.6 0.00 0.01 0.01 62 1019.5
20260830113044 74 232 1.7 3.5 0.00 0.00 0.00 100 1020.7
20260830112857 75 286 1.7 4.3 0.00 0.00 0.00 60 1020.0
20260830112804 75 318 2.6 4.3 0.00 0.01 0.01 61 1019.5
20260830112357 75 152 0.9 3.5 0.00 0.00 0.00 60 1020.0
20260830112306 75 196 1.7 2.6 0.00 0.01 0.01 61 1019.5
20260830111856 75 178 0.9 3.5 0.00 0.00 0.00 63 1020.0
20260830111804 75 199 0.9 2.6 0.00 0.01 0.01 63 1019.5
20260830111548 74 221 0.9 2.6 0.00 0.00 0.00 100 1020.7
20260830111357 75 216 1.7 2.6 0.00 0.00 0.00 62 1020.1
20260830110856 75 314 0.9 3.5 0.00 0.00 0.00 62 1020.0
20260830110806 75 237 0.9 2.6 0.00 0.01 0.01 64 1019.5
20260830110358 74 341 1.7 3.5 0.00 0.00 0.00 65 1020.0
20260830110304 74 327 0.9 2.6 0.00 0.01 0.01 65 1019.5
20260830110048 73 34 1.7 2.6 0.00 0.00 0.00 100 1020.7
20260830105856 73 178 1.7 2.6 0.00 0.00 0.00 64 1020.1
20260830105804 73 146 0.9 2.6 0.00 0.01 0.01 66 1019.5
20260830105357 73 165 1.7 2.6 0.00 0.00 0.00 67 1020.1
20260830105305 73 157 0.9 2.6 0.00 0.01 0.01 66 1019.5
20260830104857 72 35 1.7 2.6 0.00 0.00 0.00 68 1020.1
20260830104804 72 324 0.9 2.6 0.00 0.01 0.01 67 1019.6
20260830104543 71 0 1.7 2.6 0.00 0.00 0.00 100 1020.7
20260830104356 71 213 1.7 2.6 0.00 0.00 0.00 67 1020.1
20260830104304 71 225 0.9 2.6 0.00 0.01 0.01 70 1019.6
20260830103856 71 197 0.9 2.6 0.00 0.00 0.00 68 1020.1
20260830103804 71 202 0.9 1.7 0.00 0.01 0.01 68 1019.5
20260830103355 71 178 0.9 2.6 0.00 0.00 0.00 69 1020.1
20260830103304 71 203 0.9 2.6 0.00 0.01 0.01 70 1019.5
20260830103045 70 221 0.9 1.7 0.00 0.00 0.00 100 1020.7
20260830102855 70 223 0.9 1.7 0.00 0.00 0.00 70 1020.1
20260830102804 70 229 0.9 1.7 0.00 0.01 0.01 70 1019.5
20260830102355 70 178 0.9 2.6 0.00 0.00 0.00 70 1020.0
20260830102306 70 206 0.9 1.7 0.00 0.01 0.01 70 1019.5
20260830101856 70 223 0.9 2.6 0.00 0.00 0.00 71 1020.0
20260830101804 70 276 0.9 2.6 0.00 0.01 0.01 70 1019.5
20260830101556 69 205 0.9 3.5 0.00 0.00 0.00 100 1020.6
20260830101355 70 178 0.9 2.6 0.00 0.00 0.00 70 1020.0
20260830100856 69 206 1.7 3.5 0.00 0.00 0.00 71 1020.0
20260830100358 69 216 1.7 3.5 0.00 0.00 0.00 72 1020.0
20260830100304 69 216 0.9 2.6 0.00 0.01 0.01 72 1019.4
20260830100145 69 45 0.9 2.6 0.00 0.00 0.00 75 1020.0
20260830100049 68 205 0.9 1.7 0.00 0.00 0.00 100 1020.7
20260830095804 69 212 0.9 2.6 0.00 0.01 0.01 75 1019.4
20260830095634 68 13 1.7 2.6 0.00 0.00 0.00 75 1019.9
20260830095628 68 231 0.9 1.7 0.00 0.00 0.00 79 1020.0
20260830095306 68 228 0.9 2.6 0.00 0.01 0.01 76 1019.5